Stations météo

réclame
Mon MeteoGroup
Hallhåxåsen, Suède (2236): Température de l'air & dewpoint: 14.06.2018 07:00:00 - 20.06.2018 07:00:00 (CEST)Hallhåxåsen, Suède (2236): Vitesse du vent & gusts: 14.06.2018 07:00:00 - 20.06.2018 07:00:00 (CEST)Hallhåxåsen, Suède (2236): Direction du vent: 14.06.2018 07:00:00 - 20.06.2018 07:00:00 (CEST)Hallhåxåsen, Suède (2236): reduced air pressure: 14.06.2018 07:00:00 - 20.06.2018 07:00:00 (CEST)Hallhåxåsen, Suède (2236): visibility: 14.06.2018 07:00:00 - 20.06.2018 07:00:00 (CEST)Hallhåxåsen, Suède (2236): Quantités de précipitations: 14.06.2018 07:00:00 - 20.06.2018 07:00:00 (CEST)
Date & Time tt [°C] td [°C] ff [km/h] ff [knt] fx [km/h] fx [knt] dd ppp [hPa] vv [km] rr [mm]
20.06.2018 07:00:00 9,1 1,4 19 11 40 21 W 1002,8 50 0,0
20.06.2018 06:00:00 7,8 1,4 14 8 36 19 WSW 1002,8 50 0,0
20.06.2018 05:00:00 7,9 2,4 13 7 36 20 WSW 1002,4 50 0,0
20.06.2018 04:00:00 7,7 2,2 15 8 39 21 W 1001,9 50 0,0
20.06.2018 03:00:00 7,9 2,2 16 9 39 21 W 1001,5 50 0,0
20.06.2018 02:00:00 8,2 1,8 15 8 35 19 WSW 1001,1 50 0,0
20.06.2018 01:00:00 7,9 1,5 15 8 34 18 W 1000,8 50 0,0
20.06.2018 00:00:00 7,9 2,2 11 6 46 25 W 1000,7 50 0,0
19.06.2018 23:00:00 8,2 2,9 15 8 46 25 W 1000,3 50 0,0
19.06.2018 22:00:00 9,4 3,2 21 11 45 25 W 999,6 50 0,0
19.06.2018 21:00:00 10,4 3,2 18 10 48 26 W 998,6 50 0,0
19.06.2018 20:00:00 11,5 3,3 24 13 56 31 W 997,9 50 0,0
19.06.2018 19:00:00 12,6 3,0 29 15 57 31 W 997,0 50 0,0
19.06.2018 18:00:00 13,5 3,8 22 12 57 31 W 996,2 47 0,0
19.06.2018 17:00:00 13,9 4,7 21 11 46 25 W 995,5 49 0,2
19.06.2018 16:00:00 14,4 3,2 15 8 41 22 W 994,8 50 0,0
19.06.2018 15:00:00 14,0 2,6 16 8 37 20 W 994,5 47 0,0
19.06.2018 14:00:00 12,6 4,3 13 7 37 20 W 994,8 47 0,0
19.06.2018 13:00:00 12,8 4,0 14 8 34 18 W 994,7 48 0,0
19.06.2018 12:00:00 10,9 5,8 17 9 31 17 W 995,1 38 0,0
19.06.2018 11:00:00 8,5 7,1 13 7 25 13 W 995,4 49 0,0
19.06.2018 10:00:00 6,6 5,9 10 5 25 13 WSW 995,4 50 0,2
19.06.2018 09:00:00 6,3 5,7 4 2 13 7 WSW 994,8 39 1,2
19.06.2018 08:00:00 6,3 5,4 5 3 26 14 W 995,3 27 0,2
19.06.2018 07:00:00 6,1 5,2 8 4 29 16 NW 995,3 50 1,1
19.06.2018 06:00:00 7,0 5,8 11 6 29 16 NNW 995,4 4,4 0,9
19.06.2018 05:00:00 8,9 8,3 8 5 18 10 W 995,3 12 0,7
19.06.2018 04:00:00 10,5 9,2 6 3 13 7 S 995,3 42 0,1
19.06.2018 03:00:00 10,9 8,8 6 4 13 7 S 996,3 50 0,0
19.06.2018 02:00:00 11,1 8,9 4 2 11 6 S 997,4 50 0,0
19.06.2018 01:00:00 - - - - - - - - - -
19.06.2018 00:00:00 10,7 9,9 3 1 15 8 NE 999,2 50 0,0
18.06.2018 23:00:00 12,2 11,3 4 2 10 5 ENE 999,4 50 0,3
18.06.2018 22:00:00 12,9 10,8 2 1 13 7 NE 1000,0 50 0,0
18.06.2018 21:00:00 13,9 11,9 2 1 20 11 NE 1000,1 50 0,0
18.06.2018 20:00:00 14,5 10,5 7 4 20 11 SE 1000,1 50 0,0
18.06.2018 19:00:00 16,1 9,7 7 4 24 13 SE 1000,2 50 0,0
18.06.2018 18:00:00 16,3 9,2 13 7 26 14 SSE 1000,7 50 0,0
18.06.2018 17:00:00 15,4 9,7 3 2 26 14 SE 1001,6 45 0,4
18.06.2018 16:00:00 15,8 8,3 3 1 17 9 ESE 1001,9 50 0,0
18.06.2018 15:00:00 15,3 8,8 6 4 17 9 SSW 1002,5 44 0,0
18.06.2018 14:00:00 15,8 9,2 8 4 20 11 WSW 1002,7 44 0,0
18.06.2018 13:00:00 13,7 8,9 8 5 20 11 SSW 1003,2 50 0,0
18.06.2018 12:00:00 13,4 9,1 9 5 20 11 W 1003,3 42 0,0
18.06.2018 11:00:00 11,6 9,2 6 4 19 11 WSW 1003,9 50 0,0
18.06.2018 10:00:00 11,1 9,5 7 4 16 9 WSW 1003,9 47 0,0
18.06.2018 09:00:00 10,1 8,9 4 2 9 5 WNW 1003,9 26 0,2
18.06.2018 08:00:00 9,5 8,7 5 3 9 5 NNW 1004,1 16 0,6
18.06.2018 07:00:00 9,1 8,6 5 3 9 5 NNW 1004,7 10 0,4
18.06.2018 06:00:00 8,9 8,6 2 1 9 5 N 1005,2 7 0,1
18.06.2018 05:00:00 8,7 8,4 0 0 9 5 N 1006,0 6 0,1
18.06.2018 04:00:00 8,8 8,5 0 0 7 4 N 1006,7 3,4 0,1
18.06.2018 03:00:00 8,9 8,4 2 1 15 8 NE 1007,6 7 0,1
18.06.2018 02:00:00 8,9 8,6 3 2 16 9 E 1008,2 9 0,8
18.06.2018 01:00:00 9,0 8,5 8 4 16 9 E 1009,1 10 0,7
18.06.2018 00:00:00 9,3 8,8 7 4 18 10 E 1009,7 9 1,0
17.06.2018 23:00:00 9,5 8,4 6 3 19 10 SE 1010,8 12 0,8
17.06.2018 22:00:00 10,6 10,0 6 3 19 10 ESE 1011,2 11 0,4
17.06.2018 21:00:00 10,7 10,1 7 4 20 11 E 1011,7 11 0,6
17.06.2018 20:00:00 11,2 10,4 7 4 20 11 E 1012,2 11 0,9
17.06.2018 19:00:00 11,8 10,7 8 4 23 12 ESE 1012,5 17 0,1
17.06.2018 18:00:00 12,0 10,7 11 6 26 14 ESE 1012,9 24 0,3
17.06.2018 17:00:00 11,6 10,3 8 5 26 14 SE 1013,4 14 1,0
17.06.2018 16:00:00 11,8 10,9 8 5 19 10 E 1013,6 11 0,7
17.06.2018 15:00:00 11,6 10,3 8 4 21 11 ESE 1014,2 13 2,0
17.06.2018 14:00:00 11,9 9,5 7 4 26 14 SE 1014,6 10 0,2
17.06.2018 13:00:00 12,9 6,9 8 5 42 23 SE 1014,4 48 0,0
17.06.2018 12:00:00 13,7 6,5 12 7 42 23 SE 1014,3 48 0,0
17.06.2018 11:00:00 15,4 5,0 15 8 35 19 ESE 1014,0 50 0,1
17.06.2018 10:00:00 14,8 6,1 14 8 28 15 SE 1014,5 45 0,0
17.06.2018 09:00:00 14,4 6,5 13 7 28 15 E 1014,6 44 0,0
17.06.2018 08:00:00 12,2 5,6 9 5 19 10 ENE 1015,2 50 0,0
17.06.2018 07:00:00 10,0 5,2 6 4 16 8 NE 1016,0 50 0,0
17.06.2018 06:00:00 8,7 4,1 7 4 15 8 NE 1016,6 50 0,0
17.06.2018 05:00:00 7,9 3,6 6 3 17 9 NE 1016,8 50 0,0
17.06.2018 04:00:00 7,5 3,2 6 3 17 9 NE 1017,1 50 0,0
17.06.2018 03:00:00 6,6 3,0 7 4 15 8 NE 1017,3 50 0,0
17.06.2018 02:00:00 6,4 3,2 6 3 13 7 NE 1017,5 50 0,0
17.06.2018 01:00:00 7,1 3,3 4 2 13 7 NE 1017,5 50 0,0
17.06.2018 00:00:00 8,2 3,6 6 3 14 8 NNE 1017,3 50 0,0
16.06.2018 23:00:00 9,9 3,6 5 3 17 9 NNE 1016,7 50 0,0
16.06.2018 22:00:00 11,7 3,7 6 3 24 13 NNE 1016,2 50 0,0
16.06.2018 21:00:00 13,6 3,7 8 5 24 13 N 1015,3 50 0,0
16.06.2018 20:00:00 15,2 3,0 8 4 23 13 NNE 1014,6 50 0,0
16.06.2018 19:00:00 17,4 1,0 8 4 19 10 NNW 1013,6 47 0,0
16.06.2018 18:00:00 18,1 1,6 5 3 23 12 WNW 1013,3 43 0,0
16.06.2018 17:00:00 17,9 1,8 5 3 23 13 WSW 1013,2 45 0,0
16.06.2018 16:00:00 17,9 1,4 8 4 23 13 W 1013,1 45 0,0
16.06.2018 15:00:00 17,7 4,6 8 4 26 14 WNW 1012,9 42 0,0
16.06.2018 14:00:00 15,5 5,1 6 3 26 14 NE 1013,0 42 0,0
16.06.2018 13:00:00 14,3 5,6 13 7 26 14 NNW 1013,0 44 0,0
16.06.2018 12:00:00 14,5 3,6 4 2 16 9 ESE 1012,6 50 0,0
16.06.2018 11:00:00 14,0 3,5 6 4 12 7 NNW 1012,5 50 0,0
16.06.2018 10:00:00 14,2 3,9 4 2 11 6 WSW 1012,1 48 0,0
16.06.2018 09:00:00 13,5 3,8 4 2 8 5 SSW 1011,8 50 0,0
16.06.2018 08:00:00 11,8 4,0 0 0 8 5 N 1011,7 50 0,0
16.06.2018 07:00:00 11,5 4,7 2 1 9 5 N 1011,2 50 0,0
16.06.2018 06:00:00 8,9 4,5 3 1 9 5 NE 1011,3 50 0,0
16.06.2018 05:00:00 7,4 1,7 3 2 8 4 WNW 1010,9 50 0,0
16.06.2018 04:00:00 7,3 0,7 4 2 12 7 SW 1010,4 50 0,0
16.06.2018 03:00:00 6,4 0,5 4 2 12 7 WSW 1010,1 50 0,0
16.06.2018 02:00:00 8,8 0,0 6 3 9 5 SSE 1009,2 50 0,0
16.06.2018 01:00:00 10,2 0,2 4 2 10 5 S 1008,5 50 0,0
16.06.2018 00:00:00 10,4 1,5 5 3 10 5 E 1008,2 50 0,0
15.06.2018 23:00:00 11,4 1,1 0 0 16 9 N 1007,3 50 0,0
15.06.2018 22:00:00 13,3 0,7 5 3 30 16 WSW 1006,0 50 0,0
15.06.2018 21:00:00 15,3 0,7 12 7 46 25 WSW 1004,7 50 0,0
15.06.2018 20:00:00 14,3 1,6 8 5 46 25 SW 1004,3 50 0,0
15.06.2018 19:00:00 14,4 3,8 8 4 41 22 W 1003,8 28 0,0
15.06.2018 18:00:00 17,0 0,2 23 13 55 30 SW 1002,7 50 0,0
15.06.2018 17:00:00 14,4 2,9 14 8 55 30 W 1003,0 50 0,2
15.06.2018 16:00:00 11,7 7,8 5 3 40 22 W 1002,8 9 1,0
15.06.2018 15:00:00 16,3 0,8 14 8 31 17 SW 1001,1 48 0,0
15.06.2018 14:00:00 15,9 1,6 11 6 33 18 WSW 1000,6 50 0,1
15.06.2018 13:00:00 18,2 2,9 7 4 33 18 W 999,4 50 0,0
15.06.2018 12:00:00 15,4 2,2 12 7 42 23 SW 999,2 50 0,0
15.06.2018 11:00:00 16,8 4,1 17 9 46 25 SW 998,1 39 0,0
15.06.2018 10:00:00 14,6 5,4 18 10 46 25 SSW 997,7 50 0,0
15.06.2018 09:00:00 15,6 6,5 18 10 44 24 SW 996,8 50 0,0
15.06.2018 08:00:00 14,6 7,2 23 12 43 23 SSW 996,0 42 0,0
15.06.2018 07:00:00 13,4 7,4 24 13 41 22 SSW 995,4 50 0,0
15.06.2018 06:00:00 12,8 8,3 19 10 35 19 S 995,1 50 0,0
15.06.2018 05:00:00 12,1 8,9 16 9 36 19 S 994,8 50 0,0
15.06.2018 04:00:00 12,5 9,5 13 7 36 19 S 995,0 50 0,0
15.06.2018 03:00:00 12,3 9,7 17 9 36 19 S 994,8 50 0,0
15.06.2018 02:00:00 11,7 10,0 15 8 36 19 S 995,0 - 0,2
15.06.2018 01:00:00 11,4 10,0 16 8 34 18 S 995,4 - 0,2
15.06.2018 00:00:00 11,8 9,5 16 9 35 19 S 996,2 32 0,1
14.06.2018 23:00:00 11,8 9,2 16 9 45 24 SSE 995,8 48 0,3
14.06.2018 22:00:00 12,3 8,6 19 11 45 24 S 996,4 50 0,2
14.06.2018 21:00:00 12,4 8,7 17 9 44 24 S 996,7 46 0,0
14.06.2018 20:00:00 13,4 7,6 19 10 48 26 S 997,5 49 0,0
14.06.2018 19:00:00 14,5 6,8 25 13 48 26 S 997,8 50 0,0
14.06.2018 18:00:00 15,0 7,8 20 11 40 22 SSW 998,0 50 0,0
14.06.2018 17:00:00 14,6 10,6 11 6 34 19 SSE 998,5 35 0,0
14.06.2018 16:00:00 14,9 9,7 16 9 34 19 SE 998,9 44 0,0
14.06.2018 15:00:00 14,2 9,6 15 8 34 19 SSE 1000,3 50 0,0
14.06.2018 14:00:00 12,5 9,3 14 8 29 16 SE 1001,7 50 0,0
14.06.2018 13:00:00 10,9 9,2 10 5 25 13 SE 1002,8 50 0,0
14.06.2018 12:00:00 10,2 8,6 10 5 30 16 SE 1003,8 50 0,0
14.06.2018 11:00:00 9,7 8,5 10 6 30 16 ESE 1004,5 42 0,0
14.06.2018 10:00:00 10,5 7,2 12 6 31 17 SSE 1005,2 50 0,0
14.06.2018 09:00:00 10,3 6,8 13 7 31 17 SE 1005,7 50 0,0
14.06.2018 08:00:00 10,3 7,2 9 5 27 14 SSE 1005,9 50 0,0
14.06.2018 07:00:00 9,8 6,7 12 7 25 13 S 1006,3 50 0,0

tt = Température de l'air
td = dewpoint
ff = Vitesse du vent
fx = gusts
dd = Direction du vent
ppp = reduced air pressure
vv = visibility
rr = Quantités de précipitations

stations d'obs. à proximité